Location: Omaha
(41.2590°N, 95.9380°W)
Time: 08:01:14
(UTC-05:00)

Vanguard 3 - Visible Passes

Search period start: 20 June 2018 00:00
Search period end: 30 June 2018 00:00
Orbit: 508 x 3264 km, 33.3° (Epoch: 19 June)

Date Brightness Start Highest point End Pass type
(mag) Time Alt. Az. Time Alt. Az. Time Alt. Az.
20 Jun 8.6 03:47:09 20° S 03:49:09 24° SSE 03:55:23 10° E visible
21 Jun 9.4 02:37:24 10° SE 02:37:24 10° SE 02:37:25 10° SE visible
21 Jun 8.5 04:41:58 14° SW 04:46:30 39° SSE 04:55:15 10° E visible
22 Jun 8.4 03:32:13 23° SSE 03:33:11 24° SSE 03:38:54 10° E visible
23 Jun 8.2 04:27:04 18° SW 04:30:36 39° SSE 04:38:29 10° E visible
24 Jun 8.2 03:17:20 25° SSE 03:17:20 25° SSE 03:22:31 10° ESE visible
25 Jun 7.9 04:12:12 23° SW 04:14:47 38° SSE 04:21:49 10° ESE visible
26 Jun 8.3 03:02:30 24° SE 03:02:30 24° SE 03:06:14 10° ESE visible
26 Jun 8.1 05:07:34 10° WSW 05:12:35 43° S 05:20:57 10° ESE visible
27 Jun 7.6 03:57:26 29° SSW 03:59:02 36° S 04:05:16 10° ESE visible
28 Jun 8.5 02:47:49 19° SE 02:47:49 19° SE 02:50:05 10° ESE visible
28 Jun 8.0 04:52:23 11° WSW 04:56:49 38° S 05:04:07 10° ESE visible
29 Jun 7.4 03:42:48 33° S 03:43:20 34° S 03:48:50 10° ESE visible
